When you browse on this site, cookies collect data to enhance your experience and personalize the content and advertising you see.
Visit our Privacy Policy to learn more. By continuing to use the site, you agree to this use of cookies and data.
  • en Suisse
  • Liste des pays
  • À 7 jours
  • Température de l'eau
  • Carte satellitaire
  • Carte météo
  • Widgets météo
  • user-avatar
    Se connecter

    Météo par heure à Batken

    Ce jour, 16 Juin, Dimanche

    Heure Température Précipitation Vent Pression Humidité
    00:00 +20°C° 0 mm 2 m/s 670 mmHg 42%
    01:00 +20°C° 0 mm 2 m/s 670 mmHg 41%
    02:00 +20°C° 0 mm 2 m/s 669 mmHg 41%
    03:00 +19°C° 0 mm 2 m/s 669 mmHg 42%
    04:00 +18°C° 0 mm 2 m/s 669 mmHg 43%
    05:00 +18°C° 0 mm 2 m/s 669 mmHg 43%
    06:00 +20°C° 0 mm 2 m/s 670 mmHg 40%
    07:00 +23°C° 0 mm 2 m/s 670 mmHg 36%
    08:00 +24°C° 0 mm 2 m/s 671 mmHg 32%
    09:00 +25°C° 0 mm 2 m/s 671 mmHg 30%
    10:00 +26°C° 0 mm 3 m/s 671 mmHg 29%
    11:00 +27°C° 0 mm 3 m/s 671 mmHg 28%
    12:00 +28°C° 0 mm 3 m/s 671 mmHg 27%
    13:00 +29°C° 0 mm 3 m/s 671 mmHg 26%
    14:00 +29°C° 0 mm 3 m/s 671 mmHg 25%
    15:00 +29°C° 0 mm 4 m/s 671 mmHg 26%
    16:00 +29°C° 0 mm 5 m/s 670 mmHg 26%
    17:00 +29°C° 0 mm 6 m/s 670 mmHg 27%
    18:00 +27°C° 0 mm 5 m/s 670 mmHg 31%
    19:00 +26°C° 0 mm 3 m/s 670 mmHg 35%
    20:00 +25°C° 0 mm 2 m/s 670 mmHg 38%
    21:00 +24°C° 0 mm 2 m/s 670 mmHg 39%
    22:00 +23°C° 0 mm 2 m/s 670 mmHg 39%
    23:00 +23°C° 0 mm 2 m/s 670 mmHg 39%

    Demain, 17 Juin, Lundi

    Heure Température Précipitation Vent Pression Humidité
    00:00 +22°C° 0 mm 1 m/s 669 mmHg 39%
    01:00 +22°C° 0 mm 1 m/s 669 mmHg 40%
    02:00 +21°C° 0 mm 1 m/s 669 mmHg 40%
    03:00 +20°C° 0 mm 2 m/s 669 mmHg 40%
    04:00 +19°C° 0 mm 2 m/s 668 mmHg 41%
    05:00 +19°C° 0 mm 2 m/s 668 mmHg 41%
    06:00 +21°C° 0 mm 2 m/s 669 mmHg 36%
    07:00 +23°C° 0 mm 2 m/s 669 mmHg 31%
    08:00 +25°C° 0 mm 2 m/s 670 mmHg 26%
    09:00 +26°C° 0 mm 2 m/s 670 mmHg 25%
    10:00 +27°C° 0 mm 3 m/s 670 mmHg 24%
    11:00 +28°C° 0 mm 3 m/s 670 mmHg 24%
    12:00 +28°C° 0.1 mm 3 m/s 670 mmHg 23%
    13:00 +29°C° 0.1 mm 3 m/s 669 mmHg 23%
    14:00 +29°C° 0.1 mm 3 m/s 669 mmHg 23%
    15:00 +30°C° 0.1 mm 3 m/s 669 mmHg 22%
    16:00 +30°C° 0.1 mm 2 m/s 669 mmHg 22%
    17:00 +30°C° 0.1 mm 2 m/s 669 mmHg 22%
    18:00 +28°C° 0 mm 2 m/s 669 mmHg 26%
    19:00 +27°C° 0 mm 2 m/s 668 mmHg 30%
    20:00 +26°C° 0 mm 2 m/s 668 mmHg 35%
    21:00 +25°C° 0 mm 2 m/s 668 mmHg 36%
    22:00 +24°C° 0 mm 1 m/s 668 mmHg 37%
    23:00 +24°C° 0 mm 1 m/s 668 mmHg 39%

    Après-demain, 18 Juin, Mardi

    Heure Température Précipitation Vent Pression Humidité
    00:00 +23°C° 0 mm 1 m/s 668 mmHg 40%
    01:00 +23°C° 0 mm 2 m/s 668 mmHg 40%
    02:00 +21°C° 0 mm 2 m/s 667 mmHg 41%
    03:00 +21°C° 0 mm 2 m/s 667 mmHg 42%
    04:00 +20°C° 0 mm 2 m/s 667 mmHg 43%
    05:00 +20°C° 0 mm 2 m/s 667 mmHg 44%
    06:00 +21°C° 0 mm 2 m/s 667 mmHg 39%
    07:00 +24°C° 0 mm 2 m/s 668 mmHg 34%
    08:00 +25°C° 0 mm 2 m/s 668 mmHg 29%
    09:00 +26°C° 0.1 mm 2 m/s 668 mmHg 28%
    10:00 +27°C° 0.1 mm 2 m/s 668 mmHg 27%
    11:00 +28°C° 0.1 mm 3 m/s 668 mmHg 26%
    12:00 +29°C° 0.1 mm 3 m/s 668 mmHg 26%
    13:00 +29°C° 0.1 mm 3 m/s 668 mmHg 25%
    14:00 +30°C° 0.1 mm 3 m/s 668 mmHg 24%
    15:00 +30°C° 0.1 mm 4 m/s 668 mmHg 24%
    16:00 +30°C° 0.1 mm 5 m/s 668 mmHg 24%
    17:00 +30°C° 0.1 mm 5 m/s 668 mmHg 24%
    18:00 +28°C° 0.3 mm 5 m/s 668 mmHg 30%
    19:00 +26°C° 0.3 mm 5 m/s 668 mmHg 37%
    20:00 +23°C° 0.3 mm 5 m/s 667 mmHg 43%
    21:00 +23°C° 0.1 mm 5 m/s 668 mmHg 43%
    22:00 +23°C° 0.1 mm 5 m/s 668 mmHg 43%
    23:00 +22°C° 0.1 mm 5 m/s 668 mmHg 42%

    19 Juin, Mercredi

    Heure Température Précipitation Vent Pression Humidité
    00:00 +22°C° 0 mm 5 m/s 668 mmHg 42%
    01:00 +22°C° 0 mm 4 m/s 668 mmHg 42%
    02:00 +22°C° 0 mm 4 m/s 667 mmHg 42%
    03:00 +22°C° 0 mm 3 m/s 667 mmHg 42%
    04:00 +22°C° 0 mm 3 m/s 667 mmHg 43%
    05:00 +21°C° 0 mm 2 m/s 667 mmHg 43%
    06:00 +24°C° 0 mm 2 m/s 668 mmHg 38%
    07:00 +25°C° 0 mm 2 m/s 668 mmHg 33%
    08:00 +26°C° 0 mm 2 m/s 669 mmHg 28%
    09:00 +27°C° 0 mm 3 m/s 669 mmHg 27%
    10:00 +28°C° 0 mm 3 m/s 669 mmHg 26%
    11:00 +29°C° 0 mm 3 m/s 669 mmHg 24%
    12:00 +30°C° 0.1 mm 4 m/s 669 mmHg 24%
    13:00 +30°C° 0.1 mm 4 m/s 669 mmHg 23%
    14:00 +32°C° 0.1 mm 4 m/s 668 mmHg 23%
    15:00 +30°C° 0.1 mm 5 m/s 668 mmHg 24%
    16:00 +30°C° 0.1 mm 6 m/s 668 mmHg 25%
    17:00 +30°C° 0.1 mm 6 m/s 668 mmHg 26%
    18:00 +29°C° 0 mm 5 m/s 668 mmHg 28%
    19:00 +27°C° 0 mm 5 m/s 668 mmHg 30%
    20:00 +26°C° 0 mm 4 m/s 668 mmHg 31%
    21:00 +25°C° 0 mm 3 m/s 668 mmHg 34%
    22:00 +24°C° 0 mm 3 m/s 668 mmHg 36%
    23:00 +24°C° 0 mm 2 m/s 668 mmHg 38%

    20 Juin, Jeudi

    Heure Température Précipitation Vent Pression Humidité
    00:00 +23°C° 0 mm 2 m/s 668 mmHg 37%
    01:00 +23°C° 0 mm 2 m/s 668 mmHg 37%
    02:00 +21°C° 0 mm 2 m/s 667 mmHg 37%
    03:00 +21°C° 0 mm 2 m/s 667 mmHg 37%
    04:00 +20°C° 0 mm 2 m/s 667 mmHg 37%
    05:00 +20°C° 0 mm 2 m/s 667 mmHg 36%
    06:00 +23°C° 0 mm 2 m/s 668 mmHg 32%
    07:00 +24°C° 0 mm 1 m/s 668 mmHg 28%
    08:00 +26°C° 0 mm 1 m/s 669 mmHg 23%
    09:00 +27°C° 0 mm 2 m/s 669 mmHg 22%
    10:00 +28°C° 0 mm 2 m/s 669 mmHg 22%
    11:00 +28°C° 0 mm 3 m/s 669 mmHg 21%
    12:00 +29°C° 0.1 mm 3 m/s 668 mmHg 20%
    13:00 +30°C° 0.1 mm 2 m/s 668 mmHg 20%
    14:00 +30°C° 0.1 mm 2 m/s 668 mmHg 19%
    15:00 +30°C° 0 mm 2 m/s 668 mmHg 19%
    16:00 +31°C° 0 mm 2 m/s 668 mmHg 19%
    17:00 +31°C° 0 mm 2 m/s 668 mmHg 19%
    18:00 +29°C° 0 mm 2 m/s 668 mmHg 22%
    19:00 +28°C° 0 mm 3 m/s 668 mmHg 25%
    20:00 +27°C° 0 mm 3 m/s 668 mmHg 28%
    21:00 +26°C° 0 mm 3 m/s 668 mmHg 30%
    22:00 +25°C° 0 mm 2 m/s 668 mmHg 32%
    23:00 +25°C° 0 mm 2 m/s 668 mmHg 34%

    21 Juin, Vendredi

    Heure Température Précipitation Vent Pression Humidité
    00:00 +24°C° 0 mm 2 m/s 668 mmHg 35%
    01:00 +24°C° 0 mm 2 m/s 668 mmHg 35%
    02:00 +23°C° 0 mm 2 m/s 667 mmHg 36%
    03:00 +23°C° 0 mm 2 m/s 667 mmHg 37%
    04:00 +22°C° 0 mm 1 m/s 667 mmHg 37%
    05:00 +22°C° 0 mm 1 m/s 667 mmHg 38%
    06:00 +23°C° 0 mm 1 m/s 668 mmHg 33%
    07:00 +25°C° 0 mm 1 m/s 668 mmHg 29%
    08:00 +27°C° 0 mm 1 m/s 669 mmHg 24%
    09:00 +28°C° 0 mm 1 m/s 669 mmHg 23%
    10:00 +29°C° 0 mm 2 m/s 669 mmHg 23%
    11:00 +30°C° 0 mm 2 m/s 669 mmHg 22%
    12:00 +30°C° 0.1 mm 2 m/s 669 mmHg 21%
    13:00 +31°C° 0.1 mm 2 m/s 669 mmHg 21%
    14:00 +32°C° 0.1 mm 2 m/s 669 mmHg 20%
    15:00 +32°C° 0.1 mm 2 m/s 669 mmHg 20%
    16:00 +32°C° 0.1 mm 2 m/s 669 mmHg 19%
    17:00 +32°C° 0.1 mm 2 m/s 668 mmHg 19%
    18:00 +31°C° 0.1 mm 2 m/s 668 mmHg 21%
    19:00 +30°C° 0.1 mm 3 m/s 668 mmHg 24%
    20:00 +28°C° 0.1 mm 3 m/s 668 mmHg 26%
    21:00 +28°C° 0 mm 3 m/s 668 mmHg 28%
    22:00 +27°C° 0 mm 2 m/s 668 mmHg 29%
    23:00 +26°C° 0 mm 2 m/s 668 mmHg 31%
    Voir plus